Location: Unspecified
(0.0000°N, 0.0000°E)
Time: 13:31:32
(UTC+00:00)

COSMOS-2414 - Pass Details

Date: 21 April 2024
Orbit: 908 x 965 km, 83.0° (Epoch: 25 May)

Event Time Altitude Azimuth Distance (km) Brightness Sun altitude
Rises 04:29:02 0° 184° (S) 3,587 8.8 -21.9°
Reaches altitude 10° 04:31:32 10° 184° (S) 2,633 8.1 -21.3°
Maximum altitude 04:37:32 87° 271° (W) 924 5.8 -19.8°
Drops below altitude 10° 04:43:27 10° 2° (N) 2,590 8.4 -18.4°
Sets 04:45:53 0° 3° (N) 3,525 9.1 -17.8°
